Location: *
(33.3160°N, 36.1360°W)
Time: 04:59:03
(UTC+00:00)

Daily predictions for brighter satellites

Satellite Brightness Start Highest point End
(mag) Time Altitude Azimuth Time Altitude Azimuth Time Altitude Azimuth
H-2A R/B 4.4 05:29:27 49° ESE 05:29:27 49° ESE 05:56:35 10° E
CZ-3A R/B 4.4 06:14:30 51° SSW 06:14:30 51° SSW 06:24:54 10° ESE
Cosmos 2237 Rocket 4.3 06:16:38 19° SE 06:18:41 23° E 06:23:02 10° NE
Atlas Centaur 2 3.4 06:24:10 51° SE 06:24:10 51° SE 06:30:55 10° E
USA 267 4.0 06:21:04 10° SE 06:25:21 45° SE 06:25:21 45° SE
Centaur D-1AR AC-36 4.4 06:36:00 21° S 06:38:39 27° SE 06:54:18 10° E
Haruka 3.8 06:46:14 57° ESE 06:46:14 57° ESE 06:54:25 10° E
Cosmos 1980 4.4 06:50:29 42° SSE 06:51:49 51° ESE 06:57:16 10° NNE
Lacrosse 4 Rocket 4.2 06:52:58 10° SE 06:55:39 17° ESE 06:58:23 10° ENE
CZ-2C R/B 3.2 07:00:49 29° E 07:00:49 29° E 07:02:54 10° E
NOSS 0 Rocket 3.8 07:05:35 76° SSW 07:06:07 89° ESE 07:12:19 10° NNE
SJ 16-02 3.7 07:11:43 13° S 07:11:43 13° S 07:12:16 10° S
COSMO-SKYMED 1 4.4 07:06:27 10° SE 07:10:12 30° ENE 07:13:28 13° NNE
Cosmos 1953 3.1 07:16:34 10° SSE 07:20:25 50° E 07:24:16 10° NNE
Cosmos 1544 Rocket 3.9 07:19:49 10° S 07:24:04 63° E 07:28:21 10° NNE
Cosmos 1513 Rocket 4.3 07:22:38 10° S 07:28:58 76° W 07:35:14 10° N
Cosmos 1814 Rocket 4.2 07:24:00 10° S 07:29:05 67° ESE 07:34:10 10° NNE
Chandra Rocket (1) 2.8 07:29:26 44° SSW 07:29:53 45° S 07:32:52 10° ESE
ATLAS CENTAUR R/B 2.3 07:28:54 21° S 07:30:56 41° ESE 07:34:25 10° NE
Cosmos 1937 Rocket 4.1 07:27:20 16° N 07:31:27 56° ENE 07:36:32 10° SSE
Cosmos 2208 Rocket 4.4 07:28:07 10° S 07:33:31 68° ESE 07:38:55 10° NNE
OAO 2 Rocket 3.1 07:36:02 63° NW 07:36:42 74° N 07:41:37 10° E
H-2A R/B 4.2 07:33:18 10° SSW 07:34:10 15° SSW 07:34:10 15° SSW
Cosmos 1891 Rocket 4.4 07:32:43 10° SSW 07:38:51 60° W 07:44:53 10° N
Envisat 4.4 07:34:29 10° NNE 07:39:14 38° E 07:43:55 10° SSE
OAO 3 Copernicus 4.2 07:40:08 51° WSW 07:41:24 82° SSE 07:46:28 10° ENE
GPS 2-04 Rocket1 3.5 07:42:22 38° SSW 07:42:22 38° SSW 07:46:11 10° SE
Cosmos 1464 Rocket 3.9 07:37:00 10° SSW 07:43:01 61° W 07:49:05 10° N
OAO 1 Rocket 4.4 07:44:14 47° WNW 07:45:44 73° N 07:51:03 10° E
USA 307 2.7 07:45:15 45° SW 07:46:30 90° N 07:50:44 10° NE
Cosmos 540 Rocket 3.5 07:46:23 36° WSW 07:48:01 49° WNW 07:52:59 10° N
Okean 1-7 Rocket 3.5 07:46:36 16° N 07:50:09 79° W 07:54:37 10° S
CZ-4B R/B 1.4 07:47:31 10° S 07:50:39 64° SW 07:50:39 64° SW
SL-16 R/B 3.0 07:45:57 10° S 07:51:23 51° ESE 07:56:52 10° NNE
USA 305 2.7 07:53:25 40° WSW 07:54:49 71° NW 07:59:03 10° NE
USA 308 2.7 07:53:43 37° SW 07:55:18 75° NW 07:59:32 10° NE
Cosmos 1703 4.4 07:52:49 10° N 07:56:35 45° E 08:00:19 10° SSE
NOSS 3-2 (A) 3.3 07:52:36 10° SSW 07:58:00 82° ESE 08:04:04 10° NNE
SKYMED 2 3.4 07:53:47 10° S 07:58:06 71° WSW 08:02:03 12° NNW
Cosmos 2278 Rocket 2.2 07:53:19 12° NNW 07:58:41 89° ENE 08:04:21 10° SSE
YAOGAN 6 3.1 07:58:06 10° NNE 08:01:47 61° E 08:05:25 10° S
H-2A R/B 2.5 07:58:11 10° N 08:01:55 76° WNW 08:05:38 10° SSW
Cosmos 2237 Rocket 2.6 07:58:44 18° SW 08:02:25 39° WNW 08:07:44 10° N
Cosmos 990 Rocket 4.4 08:03:06 29° WNW 08:04:49 37° W 08:09:30 10° SSW
USA 306 3.0 08:04:53 29° WSW 08:06:48 54° NW 08:10:58 10° NE
deb Chang Zheng 4 3.9 08:04:38 10° N 08:08:34 38° WNW 08:12:28 10° SW
NOSS 3-2 (C) 4.0 08:03:48 10° S 08:09:02 54° ESE 08:14:51 10° NE
Atlas Centaur 2 3.2 08:06:46 20° W 08:12:30 73° S 08:21:03 10° E
Meteor 1-21 Rocket 4.2 08:07:58 10° NNW 08:13:42 69° W 08:19:31 10° S
Lacrosse 5 rocket 2.6 08:12:15 11° NNW 08:15:28 31° NE 08:18:46 10° ESE
Cosmos 1092 Rocket 4.3 08:10:19 10° N 08:16:28 71° E 08:22:38 10° SSE
BREEZE M DEB (TANK) 1.9 08:16:03 28° NNW 08:16:49 44° NE 08:19:06 10° ESE
CZ-4B R/B 3.5 08:17:26 10° NNW 08:20:36 28° WNW 08:23:50 10° SW
ERS-2 2.3 08:17:28 10° S 08:21:00 48° W 08:24:32 10° NNW
BREEZE-M DEB (TANK) 3.3 08:19:50 22° NW 08:21:04 29° NNW 08:26:49 10° NE
Cosmos 1300 3.5 08:17:30 10° S 08:21:12 54° E 08:24:55 10° NNE
Cosmos 2034 Rocket 4.4 08:15:59 10° SSW 08:21:56 42° W 08:27:56 10° N
BREEZE M DEB (TANK) 2.3 08:22:01 26° NW 08:22:09 26° NNW 08:24:31 10° NNE
Cosmos 1400 Rocket 3.3 08:22:30 10° SSW 08:26:19 39° WNW 08:30:12 10° N
Okean O Rocket 3.3 08:22:51 10° NNE 08:26:53 36° E 08:30:53 10° SSE
Aurora 2 Rocket 4.4 08:23:08 10° WSW 08:27:37 36° S 08:33:50 10° ESE
Cosmos 1602 Rocket 3.5 08:25:23 10° N 08:29:51 77° W 08:34:19 10° S
CENTAUR R/B 2.4 08:24:42 10° SSW 08:30:14 88° ESE 08:36:46 10° NNE
Cosmos 1328 3.7 08:26:37 10° N 08:30:32 89° W 08:34:26 10° S
Nadezhda 4 Rocket 4.1 08:25:12 10° NNW 08:31:02 49° W 08:36:52 10° SSW
SL-4 R/B 3.2 08:30:46 18° WNW 08:32:19 23° NNW 08:35:30 10° NNE
Lacrosse 4 Rocket 2.1 08:30:15 10° SW 08:34:01 32° WNW 08:37:52 10° N
FALCON 9 DEB 2.8 08:32:08 10° SW 08:35:14 84° SE 08:38:21 10° NE
Cosmos 1634 Rocket 3.9 08:29:53 10° S 08:36:02 75° W 08:42:12 10° N
PSLV R/B 4.0 08:33:52 10° N 08:37:45 50° WNW 08:41:41 10° SSW
CZ-2C R/B 1.3 08:35:08 15° W 08:38:33 68° N 08:42:29 10° E
FALCON 9 DEB 3.0 08:36:01 10° SW 08:39:10 78° SE 08:42:18 10° NE
Cosmos 1689 Rocket 2.7 08:37:15 10° SSW 08:39:56 33° W 08:42:37 10° NNW
CZ-3 Stage 3 0.7 08:39:17 11° W 08:42:04 45° S 08:43:44 10° ESE
COSMO-SKYMED 1 4.0 08:43:20 10° SW 08:46:20 18° W 08:49:22 10° NW
Cosmos 1825 Rocket 4.3 08:42:17 10° N 08:46:42 59° E 08:51:05 10° SSE
Delta 142 4.5 08:43:34 10° WSW 08:47:34 43° S 08:52:16 10° ESE
AQUARIUS 4.2 08:45:38 10° NNE 08:50:09 89° WNW 08:54:38 10° SSW
USA 238 DEB 3.8 08:44:50 10° SW 08:51:07 51° NW 08:57:41 10° NNE
USA 238 3.8 08:44:56 10° SW 08:51:13 51° NW 08:57:47 10° NNE
Cosmos 44 Rocket 4.3 08:49:02 10° NW 08:53:38 32° WSW 08:58:10 10° S
SL-8 R/B 3.8 08:50:14 10° NW 08:55:03 74° SW 08:59:51 10° SE
Cosmos 2098 Rocket 3.4 08:50:47 10° N 08:56:27 87° W 09:00:51 10° S
Cosmos 2298 Rocket 4.1 08:55:18 10° NNW 09:00:38 78° WSW 09:05:57 10° S
